Theta_e
308 307 305 300 298 298 298 297 297 298 298 297 297 299 298 298 300 301 302 305 306 307 300 302 303 303 307 308 307 311 317 314 309 309 307 302 301 301 299 299 300 300 299 299 298
302 300 299 298 297 297 297 297 297 297 298 298 297 297 299 298 300 299 301 304 305 304 299 301 306 307 308 309 308 314 316 309 304 303 303 301 300 300 299 301 301 300 299 297 297
298 298 298 297 297 297 297 297 297 297 298 298 298 297 296 300 304 299 297 299 300 299 298 300 302 308 309 307 305 306 310 303 301 301 300 300 300 299 299 301 301 300 300 299 298
297 298 297 297 297 297 297 298 297 298 299 299 298 298 299 300 310 298 297 297 298 299 302 303 307 310 308 306 303 305 301 302 300 299 299 299 298 299 299 301 299 298 298 298 298
298 297 297 297 297 297 298 297 298 298 299 299 299 299 302 304 299 296 296 297 298 300 301 304 306 308 307 303 304 305 301 300 299 297 297 296 298 299 299 300 299 298 297 297 298
297 297 297 297 297 298 298 298 298 299 299 299 300 302 306 304 296 296 296 297 297 299 299 301 302 304 303 302 304 301 301 300 299 298 298 296 298 296 301 299 298 297 298 298 298
297 297 297 296 297 298 298 299 300 299 300 299 300 302 303 300 296 297 296 296 297 297 300 298 300 305 304 302 298 300 303 300 299 298 299 296 301 297 300 298 298 298 298 298 298
298 297 298 298 298 298 299 300 300 301 300 301 300 303 302 296 297 297 296 298 298 297 296 296 299 301 301 298 300 304 304 311 300 299 298 298 310 303 299 298 298 298 298 298 298
298 299 298 299 300 300 300 299 300 299 300 302 304 306 304 298 299 297 295 297 298 298 298 297 301 304 302 308 312 310 313 310 307 297 298 298 304 305 299 298 299 299 299 299 298
299 300 300 300 300 300 300 300 301 301 301 303 303 310 302 300 298 297 296 296 299 301 304 306 307 309 306 313 318 309 308 307 307 303 298 300 302 303 302 300 300 300 299 299 298
300 300 301 300 300 300 301 303 309 312 300 301 300 302 300 298 298 300 296 298 302 304 306 304 309 306 301 299 299 300 302 305 307 299 297 304 302 303 304 303 301 300 300 299 298
301 300 300 302 300 300 302 305 300 303 305 299 298 299 296 296 303 302 297 305 307 306 306 309 307 298 296 296 298 302 304 311 304 296 297 301 300 301 302 302 302 301 300 299 298
302 301 301 302 301 301 300 298 297 299 313 303 299 300 298 298 300 299 296 300 303 306 305 309 299 295 296 299 300 306 304 303 300 298 300 298 310 306 301 299 299 300 300 299 298
303 304 302 303 305 300 300 298 300 301 322 313 306 302 300 299 304 295 294 297 304 304 302 302 296 296 298 299 297 305 296 296 297 300 315 298 321 312 308 302 300 300 299 299 299
302 305 303 303 301 302 297 297 298 306 343 312 306 299 301 304 301 302 294 302 302 301 304 305 299 299 301 297 295 302 295 295 295 299 299 305 308 317 302 302 302 302 301 301 300
304 304 305 302 302 297 297 298 306 334 337 314 306 305 308 305 303 302 301 300 297 301 302 299 294 296 296 294 294 295 297 297 296 299 318 301 308 317 313 306 305 303 301 300 299
306 303 305 303 303 299 300 307 333 329 313 313 309 305 305 305 307 302 303 300 308 325 319 309 300 294 293 300 296 299 306 330 329 326 330 297 304 318 311 305 303 301 300 299 298
305 302 304 302 301 301 305 321 329 314 313 304 303 307 310 304 305 306 311 310 300 304 315 317 319 301 294 297 300 299 303 325 321 319 315 298 311 318 306 302 300 299 298 298 298
305 303 305 303 301 302 316 333 320 313 303 305 309 313 315 307 305 311 306 306 298 296 317 315 317 293 292 292 293 303 311 295 310 300 306 312 312 311 304 304 302 300 298 298 301
307 308 308 304 302 307 324 315 311 300 299 301 314 308 317 313 314 314 312 301 299 294 292 303 313 299 291 292 290 296 294 310 310 318 320 317 320 317 315 310 307 303 301 301 302
310 318 309 305 305 318 329 313 305 297 297 303 308 311 309 308 307 310 312 301 295 293 293 298 302 307 296 300 306 296 302 298 301 304 317 317 318 318 319 312 307 302 301 301 301
311 317 310 306 320 314 316 305 298 299 297 299 300 303 305 304 308 308 309 303 294 294 300 294 303 308 311 289 288 293 303 305 311 312 304 301 309 314 310 303 302 300 299 301 301
315 315 312 308 325 315 304 302 300 300 300 300 301 298 297 303 311 307 304 294 293 294 298 296 307 313 317 298 291 296 295 294 294 297 305 310 318 307 302 304 304 302 302 301 300
316 325 314 310 307 315 312 310 306 297 299 297 299 297 299 302 301 306 303 294 292 293 292 294 300 309 318 318 307 306 295 290 296 306 309 306 309 307 305 305 304 302 300 299 298
310 310 305 317 312 308 309 307 309 308 298 297 299 300 305 309 305 303 302 296 292 292 294 293 298 302 303 303 303 303 303 293 292 300 305 309 308 307 304 302 301 299 298 300 300
317 316 306 306 303 308 307 312 310 307 304 303 301 306 301 306 309 310 304 305 304 292 294 293 300 295 296 301 302 301 300 299 296 296 297 297 298 298 298 299 300 300 300 300 300
302 301 311 311 308 313 317 311 310 306 306 302 302 303 301 302 299 296 295 296 296 297 296 295 296 299 307 299 301 308 304 298 299 296 295 299 305 302 302 302 301 300 299 298 298
Wind_Speed
6 6 5 5 7 10 11 11 14 16 17 14 12 8 1 15 19 18 22 18 22 28 18 15 4 3 4 5 7 3 2 4 3 1 3 2 3 3 2 8 7 6 7 5 2
5 6 5 6 7 9 9 10 12 14 17 20 14 9 2 3 4 26 20 25 24 23 12 13 6 8 4 5 5 6 3 3 3 2 1 2 4 6 4 7 10 8 8 6 6
5 5 5 5 7 7 8 11 13 13 16 17 16 8 4 2 1 11 27 26 23 20 5 6 6 4 6 6 8 6 3 6 3 2 2 3 7 3 6 7 4 7 6 5 10
6 6 5 5 5 6 8 11 13 12 12 16 17 5 10 1 2 15 25 23 20 17 7 6 3 2 4 6 5 5 4 2 4 1 1 4 7 7 12 7 3 6 8 10 12
7 6 6 5 5 6 9 10 11 10 10 11 17 8 4 8 7 17 20 20 14 14 17 7 12 4 6 5 3 6 5 3 4 1 3 7 10 11 16 12 9 8 9 10 11
8 7 6 5 5 7 8 10 10 8 9 9 7 11 4 7 8 17 17 14 19 16 22 13 8 9 10 5 4 3 5 4 4 3 6 6 8 6 6 10 8 9 9 10 12
8 8 7 6 5 6 8 9 9 7 9 8 6 6 18 7 7 18 15 10 12 13 6 13 6 1 2 5 4 6 2 3 4 2 3 11 9 10 6 7 8 8 9 11 14
10 7 7 6 6 8 8 7 14 4 7 6 6 3 5 4 6 20 16 4 9 8 5 4 5 9 6 6 4 3 3 4 4 4 2 6 6 8 10 9 9 8 8 9 10
13 9 7 8 9 10 6 5 11 1 4 8 5 4 4 5 8 18 13 8 9 4 5 2 2 4 4 3 4 2 6 7 2 3 5 3 12 1 9 10 11 9 7 7 7
17 12 9 8 16 5 2 4 5 6 6 4 6 2 5 8 11 18 10 9 4 5 2 2 1 4 8 7 3 6 6 4 8 5 5 17 24 21 17 17 16 12 9 6 5
17 13 9 8 18 5 2 2 3 2 16 7 4 2 4 16 4 21 13 12 2 3 3 5 5 6 8 9 6 4 7 11 11 7 13 11 21 21 15 16 16 14 11 8 5
16 14 12 6 12 4 5 3 3 3 8 6 3 3 3 8 5 19 21 5 7 6 4 2 6 5 4 4 5 7 9 8 8 2 11 14 26 24 15 10 13 13 12 9 8
16 16 14 5 6 12 12 7 4 3 1 4 4 4 4 8 5 12 16 5 7 8 11 6 4 3 2 4 9 7 5 9 9 16 5 13 10 2 3 5 7 11 10 9 10
13 17 14 3 4 4 4 3 3 2 3 7 4 4 2 4 2 5 9 4 4 6 5 5 1 2 3 2 5 5 4 8 13 12 5 8 5 6 3 5 10 12 14 13 11
11 17 9 11 2 3 0 2 3 2 0 6 3 3 5 5 7 6 3 2 5 4 4 3 3 4 2 3 3 5 6 10 7 3 5 3 3 7 3 7 10 12 13 11 9
10 13 13 6 8 3 1 2 1 1 2 3 3 7 3 5 3 7 3 6 1 1 1 2 1 2 4 3 7 11 9 7 1 1 3 2 4 6 2 2 2 2 4 5 7
10 6 16 8 2 3 2 2 1 3 2 6 4 6 4 6 3 9 5 8 6 5 8 3 3 3 2 4 3 6 5 3 2 2 3 6 5 9 10 2 4 2 2 4 7
9 6 9 12 5 2 1 3 4 1 3 1 3 5 3 7 2 6 4 3 7 3 5 6 5 1 5 2 2 3 2 2 5 7 13 4 6 2 3 1 3 3 5 6 9
6 4 4 15 6 2 3 4 3 3 2 6 3 4 2 1 2 5 4 2 3 6 3 6 4 4 5 2 1 3 0 2 4 1 4 4 6 12 2 0 3 5 2 7 10
3 2 2 16 5 1 2 3 1 2 2 2 4 2 3 7 6 7 2 1 2 0 1 2 8 3 3 1 4 2 1 2 1 6 8 6 4 8 5 9 7 7 7 13 16
2 3 6 14 3 0 3 3 2 2 1 3 2 2 1 4 3 3 2 3 1 3 1 1 1 1 2 5 3 3 1 1 2 2 4 7 5 3 3 2 3 7 10 14 16
3 2 8 8 1 3 2 3 2 2 1 0 1 0 2 2 3 3 3 1 5 5 1 2 2 6 7 3 2 2 1 3 3 3 3 3 10 4 3 2 3 7 11 14 13
3 3 7 5 2 3 2 2 1 1 1 1 1 1 0 2 4 4 3 3 6 4 2 4 3 7 3 3 2 4 5 1 0 2 10 6 7 5 1 3 6 9 13 15 16
3 1 3 4 3 3 0 1 2 1 1 1 1 2 2 4 6 4 4 3 5 4 3 5 3 8 12 10 3 8 8 7 5 5 7 14 27 24 22 14 16 19 17 18 18
5 3 2 3 3 2 0 1 2 3 2 4 3 10 7 4 4 6 4 3 4 5 5 2 6 11 22 19 15 22 17 12 14 18 9 23 12 27 25 23 21 17 21 19 19
2 1 0 1 2 4 1 3 3 2 5 4 6 2 8 5 5 10 9 4 5 8 6 4 5 2 9 10 7 12 8 15 19 18 19 27 31 25 27 18 15 18 21 23 20
1 2 2 1 0 2 2 1 3 2 5 1 6 2 7 11 7 5 5 7 3 6 9 4 4 4 7 2 12 10 7 13 6 9 7 9 11 5 20 16 14 24 24 24 21
Wind_Direction
33 29 30 27 18 12 18 27 25 28 26 19 13 19 138 62 49 49 39 341 331 332 337 321 319 342 26 48 27 304 119 89 72 317 99 116 309 103 308 276 263 268 294 345 318
30 37 38 34 21 15 24 20 13 24 20 20 11 16 43 21 39 46 356 348 343 342 350 3 9 352 63 29 20 15 56 72 38 51 58 268 295 328 282 258 258 250 245 239 253
36 36 31 28 28 34 29 6 359 3 2 3 9 9 6 49 158 10 351 355 354 360 322 330 310 341 63 49 15 15 76 132 113 66 0 278 272 220 273 270 264 284 300 240 234
48 35 21 22 30 32 12 356 354 3 9 2 13 39 58 28 19 344 351 1 357 5 0 326 317 47 64 58 25 96 82 100 144 124 246 277 309 256 242 248 312 281 281 274 266
40 24 11 5 2 357 357 1 5 7 16 11 18 35 27 56 20 336 351 2 6 11 23 14 43 32 82 87 79 84 147 138 168 129 264 295 264 275 268 251 266 276 269 266 259
20 7 360 354 350 356 3 7 11 16 13 10 16 31 333 64 341 350 350 4 14 22 30 33 49 54 86 65 32 99 153 158 179 248 283 291 294 302 249 225 243 254 265 271 266
9 6 1 358 357 0 353 358 0 358 12 10 29 86 62 62 358 356 357 7 10 19 30 34 17 72 116 112 108 141 187 190 194 293 306 317 258 224 227 197 246 259 269 272 275
7 353 359 351 331 323 334 2 1 290 8 13 41 38 72 356 13 7 7 11 8 25 63 23 32 80 32 117 153 259 235 302 131 325 75 344 291 188 184 213 245 272 279 275 276
11 5 344 345 337 311 294 321 343 53 5 27 28 324 56 359 4 359 0 351 333 357 22 6 31 68 172 249 204 194 313 310 294 78 323 250 286 298 195 233 255 269 274 278 289
12 10 356 357 349 355 256 298 20 21 358 1 39 165 54 342 326 343 350 348 340 317 234 359 51 80 31 11 13 326 320 303 289 40 326 284 269 266 248 236 257 262 254 257 284
10 11 10 10 13 8 26 337 218 168 38 53 17 57 353 329 337 7 348 323 280 68 26 25 63 39 26 36 36 338 304 290 287 39 327 301 290 278 269 255 242 243 238 243 259
10 7 4 2 18 42 52 57 40 82 91 47 51 64 359 340 330 7 1 22 25 33 338 183 58 37 28 12 325 312 313 313 324 24 319 307 294 287 271 254 242 223 226 239 255
10 8 7 13 25 41 75 76 83 17 330 53 40 13 348 348 35 347 2 350 18 33 17 45 56 50 351 335 338 332 284 321 302 318 288 308 278 192 161 216 204 223 244 253 258
11 12 12 34 59 44 49 38 37 12 205 15 19 40 318 345 37 351 11 354 47 36 15 62 85 345 316 341 346 297 30 319 317 341 312 10 293 274 156 206 212 228 233 241 248
10 13 18 43 72 49 93 3 359 292 188 356 18 329 351 36 315 42 346 312 36 18 318 36 338 344 297 45 338 310 325 309 309 293 327 168 278 273 144 236 227 230 231 234 248
7 18 19 30 47 57 3 358 322 237 297 15 331 351 320 33 34 319 7 53 24 267 77 88 71 357 353 282 247 308 301 250 302 254 258 104 348 286 211 215 175 121 212 227 249
360 9 31 46 47 352 12 254 228 24 116 352 341 354 338 354 16 15 23 20 23 359 0 213 150 110 350 303 192 290 286 317 311 239 293 153 278 258 294 248 266 276 221 240 257
355 5 15 30 14 31 263 227 63 64 26 15 305 302 13 351 60 351 328 55 63 345 306 344 312 44 25 59 277 340 9 18 315 314 308 154 234 268 345 26 329 296 287 296 293
358 2 19 354 7 44 258 50 29 29 330 335 274 287 127 179 297 329 60 40 27 7 18 338 276 130 52 138 311 54 278 18 291 161 282 237 259 261 99 323 296 261 290 300 309
352 316 358 351 1 296 38 92 112 27 322 260 342 351 318 352 334 4 9 141 155 344 352 56 289 83 130 142 81 343 56 215 141 308 308 266 262 254 310 1 8 292 261 319 323
341 264 343 352 9 328 74 89 134 120 333 346 358 308 345 317 318 321 327 147 196 152 16 137 256 98 186 193 137 139 176 165 308 269 270 299 249 190 215 179 248 287 291 302 308
311 279 341 351 13 36 66 35 40 132 156 74 332 105 272 348 287 280 288 63 144 157 341 75 298 273 306 68 38 33 357 241 242 197 243 286 272 218 174 245 220 258 269 289 295
1 334 341 354 56 77 122 103 24 157 177 210 176 252 14 296 299 243 259 117 166 179 193 164 197 297 226 142 146 211 191 187 359 269 237 251 262 18 92 293 301 291 302 301 295
349 350 40 55 45 72 22 149 163 122 166 189 141 199 222 238 213 280 259 150 184 203 158 171 254 232 262 293 9 259 185 203 214 243 257 224 274 285 287 297 307 305 298 289 283
11 53 27 5 46 54 312 209 193 210 224 210 218 227 191 238 235 238 237 160 182 191 178 220 251 247 265 281 275 264 267 189 202 230 249 273 270 288 300 302 300 296 286 288 289
22 35 325 41 329 305 169 216 222 177 164 210 228 219 210 231 230 309 333 250 305 171 196 180 271 358 286 269 262 264 248 233 227 251 257 263 280 267 272 282 285 280 293 301 298
86 101 124 167 192 302 293 272 248 167 199 268 228 238 236 261 317 339 301 296 277 190 201 207 285 318 276 153 304 275 226 192 201 199 200 232 252 343 304 296 306 297 303 297 298